Volver al catálogo

STARLINK-1183

ActivoComunicacionesVLEO
NORAD 45088·PAYLOAD·🇺🇸 United States

Lanzado Jan 29, 2020 desde Cape Canaveral Space Force Station

Loading…

Próximos Pases (próximas 24 horas)

TLE

ActualizadoSource: CelesTrak SupGP

Época: Sep 14, 2026, 21:29 UTC

1 45088C 20006AW  26257.89562500  .00079531  00000+0  17767-2 0  2571
2 45088  53.1538  76.5822 0001024  97.5693 224.8949 15.42900979    13

Sigue STARLINK-1183 en tiempo real con AllMySat

Download on the App Store